User: anonymous   Login
Location: Unspecified
(0.0000°N, 0.0000°E)
Time: 06:24:51
(UTC+02:00)
Language:

Cosmos 1072 Rocket - Orbit

View from above orbital plane
View from above orbital plane
View from above satellite
View from above satellite

Ground track
Ground track

The orbit data is extracted from the following two-line orbital elements,

1 11239U 79003B   17119.94712508 -.00000047 +00000-0 -63920-4 0  9997
2 11239 082.9352 124.3826 0041053 165.7141 256.8673 13.75807854920962
Epoch (UTC): 29 April 2017 22:43:51
Eccentricity: 0.0041053
inclination: 82.9352°
perigee height: 948 km
apogee height: 1009 km
right ascension of ascending node: 124.3826°
argument of perigee: 165.7141°
revolutions per day: 13.75807854
mean anomaly at epoch: 256.8673°
orbit number at epoch: 92096

The dashed part of the orbit path shows where the satellite is in the earth's shadow,  

DLR